KI4FRU Weather Reports


time (UTC)temp
F
wind
direction
speed
knots
gust
knots
rain 1hr
in
rain 24hr
in
rain mn
in
humidity
%
barometer
mb
20260508165253 73 37 0.0 1.7 0.00 0.00 0.00 41 1056.2
20260508164749 72 1 0.0 0.0 0.00 0.00 0.00 45 1056.1
20260508164246 72 9 0.0 1.7 0.00 0.00 0.00 43 1056.2
20260508163744 71 296 0.0 0.9 0.00 0.00 0.00 45 1056.4
20260508163241 71 17 0.0 1.7 0.00 0.00 0.00 45 1056.4
20260508162731 72 354 0.0 0.0 0.00 0.00 0.00 55 1056.4
20260508162228 73 14 0.0 0.9 0.00 0.00 0.00 47 1056.4
20260508161725 72 345 0.0 0.0 0.00 0.00 0.00 52 1056.7
20260508161223 69 32 0.0 0.0 0.00 0.00 0.00 46 1056.5
20260508160721 72 28 0.0 0.9 0.00 0.00 0.00 52 1056.8
20260508160219 69 339 0.0 0.9 0.00 0.00 0.00 52 1057.0
20260508155715 69 47 0.0 0.9 0.00 0.00 0.00 52 1057.0
20260508155212 67 282 0.0 0.9 0.00 0.00 0.00 50 1057.1
20260508154709 65 237 0.0 0.0 0.00 0.00 0.00 57 1057.1
20260508154206 65 277 0.0 1.7 0.00 0.00 0.00 57 1057.3
20260508153703 64 27 0.9 1.7 0.00 0.00 0.00 55 1057.0
20260508153200 65 357 0.0 0.0 0.00 0.00 0.00 65 1057.3
20260508152656 64 43 0.0 0.0 0.00 0.00 0.00 61 1057.3
20260508152152 64 17 0.9 0.9 0.00 0.00 0.00 63 1057.4
20260508151649 63 22 0.0 0.0 0.00 0.00 0.00 62 1057.3
20260508151146 63 14 0.0 0.0 0.00 0.00 0.00 63 1057.3
20260508150643 63 291 0.0 0.9 0.00 0.00 0.00 64 1057.3
20260508150139 62 47 0.0 0.0 0.00 0.00 0.00 72 1057.5
20260508145635 62 37 0.0 0.0 0.00 0.00 0.00 69 1057.6
20260508145131 62 40 0.0 0.0 0.00 0.00 0.00 64 1057.4
20260508144629 61 359 0.0 0.9 0.00 0.00 0.00 68 1057.5
20260508144127 61 35 0.0 0.0 0.00 0.00 0.00 65 1057.6
20260508143624 61 13 0.0 0.0 0.00 0.00 0.00 67 1057.5
20260508143120 61 352 0.0 0.0 0.00 0.00 0.00 66 1057.5
20260508142617 60 11 0.0 0.0 0.00 0.00 0.00 69 1057.4
20260508142114 60 24 0.0 0.9 0.00 0.00 0.00 69 1057.5
20260508141610 59 46 0.0 0.9 0.00 0.00 0.00 71 1057.5
20260508141108 59 62 0.0 0.0 0.00 0.00 0.00 73 1057.5
20260508140605 59 52 0.0 0.0 0.00 0.00 0.00 79 1057.5
20260508135557 58 60 0.0 0.0 0.00 0.00 0.00 81 1057.1
20260508135053 58 51 0.0 0.0 0.00 0.00 0.00 82 1057.4
20260508134550 58 44 0.0 0.0 0.00 0.00 0.00 81 1057.4
20260508134047 57 26 0.0 0.0 0.00 0.00 0.00 85 1057.3
20260508133544 56 31 0.0 0.0 0.00 0.00 0.00 88 1057.4
20260508133042 55 33 0.0 0.0 0.00 0.00 0.00 87 1057.3
20260508132539 55 42 0.0 0.0 0.00 0.00 0.00 93 1057.5
20260508132036 53 52 0.0 0.0 0.00 0.00 0.00 99 1057.4
20260508131531 53 55 0.0 0.0 0.00 0.00 0.00 99 1057.0
20260508131028 53 57 0.0 0.0 0.00 0.00 0.00 99 1057.0
20260508130525 52 60 0.0 0.0 0.00 0.00 0.00 99 1057.3
20260508130021 52 58 0.0 0.0 0.00 0.00 0.00 99 1057.3
20260508125517 52 62 0.0 0.0 0.00 0.00 0.00 99 1057.3
20260508125015 52 64 0.0 0.0 0.00 0.00 0.00 99 1057.3
20260508124513 51 65 0.0 0.0 0.00 0.00 0.00 99 1057.0
20260508124009 51 63 0.0 0.0 0.00 0.00 0.00 99 1057.0
20260508123503 51 69 0.0 0.0 0.00 0.00 0.00 99 1057.1
20260508122959 51 69 0.0 0.0 0.00 0.00 0.00 99 1057.3
20260508122456 50 68 0.0 0.0 0.00 0.00 0.00 99 1057.0
20260508121953 50 51 0.0 0.0 0.00 0.00 0.00 99 1056.8
20260508121451 50 47 0.0 0.0 0.00 0.00 0.00 99 1056.8
20260508120948 49 46 0.0 0.0 0.00 0.00 0.00 99 1056.8
20260508120446 48 44 0.0 0.0 0.00 0.00 0.00 99 1056.6
20260508115944 47 49 0.0 0.0 0.00 0.00 0.00 99 1056.7
20260508115441 46 46 0.0 0.0 0.00 0.00 0.00 99 1056.5
20260508114938 46 47 0.0 0.0 0.00 0.00 0.00 99 1056.3
20260508114435 45 46 0.0 0.0 0.00 0.00 0.00 99 1056.4
20260508113931 44 46 0.0 0.0 0.00 0.00 0.00 99 1056.3
20260508113429 44 46 0.0 0.0 0.00 0.00 0.00 99 1056.1
20260508112925 44 46 0.0 0.0 0.00 0.00 0.00 99 1055.9
20260508112422 43 46 0.0 0.0 0.00 0.00 0.00 99 1056.1
20260508111919 43 46 0.0 0.0 0.00 0.00 0.00 99 1056.1
20260508111416 43 45 0.0 0.0 0.00 0.00 0.00 99 1056.0
20260508110913 43 45 0.0 0.0 0.00 0.00 0.00 99 1055.9
20260508110411 42 45 0.0 0.0 0.00 0.00 0.00 99 1055.7
20260508105910 42 44 0.0 0.0 0.00 0.00 0.00 99 1055.6
20260508105407 42 44 0.0 0.0 0.00 0.00 0.00 99 1055.7
20260508104904 42 44 0.0 0.0 0.00 0.00 0.00 99 1055.5
20260508104402 42 43 0.0 0.0 0.00 0.00 0.00 99 1055.3
20260508103858 42 45 0.0 0.0 0.00 0.00 0.00 99 1055.2
20260508103355 42 46 0.0 0.0 0.00 0.00 0.00 99 1055.1
20260508102853 42 46 0.0 0.0 0.00 0.00 0.00 99 1055.1
20260508102351 42 46 0.0 0.0 0.00 0.00 0.00 99 1055.0
20260508101848 42 45 0.0 0.0 0.00 0.00 0.00 99 1054.8
20260508101345 42 46 0.0 0.0 0.00 0.00 0.00 99 1054.8
20260508100843 43 46 0.0 0.0 0.00 0.00 0.00 99 1055.0
20260508100341 43 46 0.0 0.0 0.00 0.00 0.00 99 1054.9
20260508095836 43 45 0.0 0.0 0.00 0.00 0.00 99 1054.8
20260508095335 43 45 0.0 0.0 0.00 0.00 0.00 99 1054.8
20260508094831 43 46 0.0 0.0 0.00 0.00 0.00 99 1054.6
20260508094328 44 45 0.0 0.0 0.00 0.00 0.00 99 1054.6
20260508093825 44 42 0.0 0.0 0.00 0.00 0.00 99 1054.6
20260508093322 44 42 0.0 0.0 0.00 0.00 0.00 99 1054.6
20260508092820 44 42 0.0 0.0 0.00 0.00 0.00 99 1054.5
20260508092318 44 44 0.0 0.0 0.00 0.00 0.00 99 1054.5
20260508091816 44 43 0.0 0.0 0.00 0.00 0.00 99 1054.5
20260508091312 44 43 0.0 0.0 0.00 0.00 0.00 99 1054.6
20260508090810 44 43 0.0 0.0 0.00 0.00 0.00 99 1054.5
20260508090308 44 43 0.0 0.0 0.00 0.00 0.00 99 1054.6
20260508085803 44 43 0.0 0.0 0.00 0.00 0.00 99 1054.4
20260508085300 44 43 0.0 0.0 0.00 0.00 0.00 99 1054.3
20260508084756 44 44 0.0 0.0 0.00 0.00 0.00 99 1054.5
20260508084254 44 43 0.0 0.0 0.00 0.00 0.00 99 1054.3
20260508083751 44 43 0.0 0.0 0.00 0.00 0.00 99 1054.6
20260508083249 44 43 0.0 0.0 0.00 0.00 0.00 99 1054.4
20260508082748 45 43 0.0 0.0 0.00 0.00 0.00 99 1054.5
20260508082246 45 43 0.0 0.0 0.00 0.00 0.00 99 1054.4
20260508081743 45 43 0.0 0.0 0.00 0.00 0.00 99 1054.3
20260508081240 45 43 0.0 0.0 0.00 0.00 0.00 99 1054.2
20260508080737 45 43 0.0 0.0 0.00 0.00 0.00 99 1054.2
20260508080235 45 42 0.0 0.0 0.00 0.00 0.00 99 1054.1
20260508075731 45 42 0.0 0.0 0.00 0.00 0.00 99 1054.1
20260508075228 45 42 0.0 0.0 0.00 0.00 0.00 99 1054.0
20260508074726 45 42 0.0 0.0 0.00 0.00 0.00 99 1054.0
20260508074224 45 42 0.0 0.0 0.00 0.00 0.00 99 1053.8
20260508073720 46 42 0.0 0.0 0.00 0.00 0.00 99 1054.0
20260508073218 46 42 0.0 0.0 0.00 0.00 0.00 99 1054.0
20260508072714 46 42 0.0 0.0 0.00 0.00 0.00 99 1054.0
20260508072211 46 42 0.0 0.0 0.00 0.00 0.00 99 1054.0
20260508071708 46 42 0.0 0.0 0.00 0.00 0.00 99 1053.8
20260508071207 46 42 0.0 0.0 0.00 0.00 0.00 99 1053.8
20260508070703 46 42 0.0 0.0 0.00 0.00 0.00 99 1053.8
20260508070202 46 44 0.0 0.0 0.00 0.00 0.00 99 1054.0
20260508065659 46 45 0.0 0.0 0.00 0.00 0.00 99 1053.6
20260508065157 46 45 0.0 0.0 0.00 0.00 0.00 99 1053.6
20260508064654 47 46 0.0 0.0 0.00 0.00 0.00 99 1053.8
20260508064152 47 46 0.0 0.0 0.00 0.00 0.00 99 1053.7
20260508063649 46 36 0.0 0.0 0.00 0.00 0.00 99 1053.6
20260508063147 47 36 0.0 0.0 0.00 0.00 0.00 99 1053.6
20260508062644 47 27 0.0 0.0 0.00 0.00 0.00 99 1053.4
20260508062141 47 27 0.0 0.0 0.00 0.00 0.00 99 1053.8
20260508061638 47 26 0.0 0.0 0.00 0.00 0.00 99 1053.7
20260508061136 47 28 0.0 0.0 0.00 0.00 0.00 99 1053.6
20260508060632 47 28 0.0 0.0 0.00 0.00 0.00 99 1053.7
20260508060130 47 27 0.0 0.0 0.00 0.00 0.00 99 1053.7
20260508055625 47 28 0.0 0.0 0.00 0.00 0.00 99 1053.6
20260508055122 47 28 0.0 0.0 0.00 0.00 0.00 99 1053.5
20260508054619 47 27 0.0 0.0 0.00 0.00 0.00 99 1053.4
20260508054116 47 28 0.0 0.0 0.00 0.00 0.00 99 1053.6
20260508053613 47 28 0.0 0.0 0.00 0.00 0.00 99 1053.4
20260508053111 48 27 0.0 0.0 0.00 0.00 0.00 99 1053.6
20260508052608 48 28 0.0 0.0 0.00 0.00 0.00 99 1053.5
20260508052105 48 29 0.0 0.0 0.00 0.00 0.00 99 1053.4
20260508051601 48 29 0.0 0.0 0.00 0.00 0.00 99 1053.4
20260508051056 48 29 0.0 0.0 0.00 0.00 0.00 99 1053.3
20260508050553 48 29 0.0 0.0 0.00 0.00 0.00 99 1053.3
20260508050050 48 30 0.0 0.0 0.00 0.00 0.00 99 1053.2
20260508045546 48 30 0.0 0.0 0.00 0.00 0.00 99 1053.1
20260508045044 48 30 0.0 0.0 0.00 0.00 0.00 99 1053.2
20260508044541 48 30 0.0 0.0 0.00 0.00 0.00 99 1053.4
20260508044037 48 30 0.0 0.0 0.00 0.00 0.00 99 1053.3
20260508043534 48 30 0.0 0.0 0.00 0.00 0.00 99 1053.2
20260508043031 49 30 0.0 0.0 0.00 0.00 0.00 99 1053.0
20260508042528 48 30 0.0 0.0 0.00 0.00 0.00 99 1053.1
20260508042025 48 30 0.0 0.0 0.00 0.00 0.00 99 1053.4
20260508041521 48 30 0.0 0.0 0.00 0.00 0.00 99 1053.3
20260508041018 49 30 0.0 0.0 0.00 0.00 0.00 99 1053.2
20260508040515 48 30 0.0 0.0 0.00 0.00 0.00 99 1053.2
20260508040013 48 30 0.0 0.0 0.00 0.16 0.16 99 1053.2
20260508035509 49 30 0.0 0.0 0.00 0.16 0.16 99 1053.1
20260508035006 49 30 0.0 0.0 0.00 0.16 0.16 99 1053.0
20260508034504 49 30 0.0 0.0 0.00 0.16 0.16 99 1053.3
20260508034000 49 30 0.0 0.0 0.00 0.16 0.16 99 1053.0
20260508033458 49 30 0.0 0.0 0.00 0.16 0.16 99 1053.1
20260508032955 50 30 0.0 0.0 0.00 0.16 0.16 99 1053.1
20260508032452 50 30 0.0 0.0 0.00 0.16 0.16 99 1053.1
20260508031949 50 30 0.0 0.0 0.00 0.16 0.16 99 1053.2
20260508031447 50 30 0.0 0.0 0.00 0.16 0.16 99 1053.1
20260508030942 50 30 0.0 0.0 0.00 0.16 0.16 99 1053.0
20260508030440 51 30 0.0 0.0 0.00 0.16 0.16 99 1053.0
20260508025937 51 30 0.0 0.0 0.00 0.16 0.16 99 1053.2
20260508025433 51 30 0.0 0.0 0.00 0.16 0.16 99 1052.9
20260508024930 51 30 0.0 0.0 0.00 0.16 0.16 99 1052.8
20260508024427 51 30 0.0 0.0 0.00 0.16 0.16 99 1052.7
20260508023923 51 30 0.0 0.0 0.00 0.16 0.16 99 1052.6
20260508023420 52 30 0.0 0.0 0.00 0.16 0.16 99 1052.6
20260508022918 52 30 0.0 0.0 0.00 0.16 0.16 99 1052.5
20260508022413 52 30 0.0 0.0 0.00 0.16 0.16 98 1052.6
20260508021910 52 31 0.0 0.0 0.00 0.16 0.16 99 1052.6
20260508021406 53 31 0.0 0.0 0.00 0.16 0.16 98 1052.4
20260508020902 53 31 0.0 0.0 0.00 0.16 0.16 98 1052.2
20260508020400 53 33 0.0 0.0 0.00 0.16 0.16 97 1052.3
20260508015857 54 33 0.0 0.0 0.00 0.16 0.16 97 1052.1
20260508015355 54 33 0.0 0.0 0.00 0.16 0.16 95 1052.0
20260508014851 54 33 0.0 0.0 0.00 0.16 0.16 95 1052.0
20260508014348 55 33 0.0 0.0 0.00 0.16 0.16 93 1052.1
20260508013844 55 32 0.0 0.0 0.00 0.16 0.16 94 1051.7
20260508013340 55 32 0.0 0.0 0.00 0.16 0.16 92 1051.5
20260508012838 56 33 0.0 0.0 0.00 0.16 0.16 91 1051.7
20260508012335 56 33 0.0 0.0 0.00 0.16 0.16 90 1051.4
20260508011832 57 33 0.0 0.0 0.00 0.16 0.16 88 1051.4
20260508011330 57 33 0.0 0.0 0.00 0.16 0.16 86 1051.5
20260508010821 58 33 0.0 0.0 0.00 0.16 0.16 84 1051.1
20260508010319 58 34 0.0 0.0 0.00 0.16 0.16 81 1051.0
20260508005816 58 33 0.0 0.0 0.00 0.16 0.16 81 1051.3
20260508005313 59 23 0.0 0.0 0.00 0.16 0.16 81 1051.0
20260508004809 59 24 0.0 0.0 0.00 0.16 0.16 80 1051.0
20260508004305 60 17 0.0 1.7 0.00 0.16 0.16 78 1050.8
20260508003801 60 1 0.0 0.0 0.00 0.16 0.16 78 1050.7
20260508003259 61 350 0.0 0.0 0.00 0.16 0.16 76 1050.8
20260508002755 61 349 0.0 2.6 0.00 0.16 0.16 76 1050.9
20260508002253 61 5 0.0 0.9 0.00 0.16 0.16 76 1050.3
20260508001748 62 210 0.0 0.9 0.00 0.16 0.16 77 1050.6
20260508001244 62 343 0.0 1.7 0.00 0.16 0.16 75 1050.8
20260508000741 63 318 0.0 0.9 0.00 0.16 0.16 74 1050.7
20260508000238 64 348 0.9 1.7 0.00 0.16 0.16 73 1050.6
20260507235734 64 348 0.9 1.7 0.00 0.16 0.16 73 1050.6
20260507235232 65 356 0.0 2.6 0.00 0.16 0.16 74 1050.4
20260507234729 65 17 0.9 0.9 0.00 0.16 0.16 72 1050.8
20260507234225 65 289 0.9 2.6 0.00 0.16 0.16 71 1050.4
20260507233722 66 35 0.0 1.7 0.00 0.16 0.16 73 1050.4
20260507233220 66 301 1.7 3.5 0.00 0.16 0.16 72 1050.4
20260507232716 66 333 0.0 1.7 0.00 0.16 0.16 75 1050.1
20260507232214 66 288 0.9 2.6 0.00 0.16 0.16 75 1049.9
20260507231710 66 207 0.0 0.9 0.00 0.16 0.16 76 1049.7
20260507231207 66 254 0.0 5.2 0.00 0.16 0.16 77 1050.0
20260507230703 66 338 0.9 1.7 0.00 0.16 0.16 85 1049.6
20260507230201 66 1 0.0 0.0 0.00 0.16 0.16 97 1049.6
20260507225655 66 242 0.0 0.0 0.00 0.16 0.16 98 1049.6
20260507225152 66 281 0.9 1.7 0.00 0.16 0.16 96 1049.3
20260507224647 65 11 0.0 0.0 0.00 0.16 0.16 97 1049.3
20260507224144 66 49 0.0 0.0 0.00 0.16 0.16 97 1049.0
20260507223640 66 349 0.0 0.0 0.00 0.16 0.16 96 1049.0
20260507223137 67 38 0.0 1.7 0.00 0.16 0.16 95 1048.8
20260507222634 67 127 0.0 0.0 0.00 0.16 0.16 94 1048.7
20260507222130 68 131 0.0 0.0 0.00 0.16 0.16 93 1048.7
20260507221627 68 135 0.0 0.0 0.00 0.16 0.16 93 1048.8
20260507221123 70 120 0.0 0.0 0.00 0.16 0.16 89 1048.5
20260507220621 70 133 0.0 0.0 0.00 0.16 0.16 88 1048.4
20260507220118 68 126 0.0 0.0 0.00 0.16 0.16 90 1048.5
20260507215614 68 145 0.0 0.9 0.00 0.16 0.16 92 1048.5
20260507215112 71 210 0.0 0.0 0.00 0.16 0.16 88 1048.4
20260507214609 70 14 0.0 0.9 0.00 0.16 0.16 88 1048.3
20260507214105 70 30 0.0 1.7 0.00 0.16 0.16 87 1048.0
20260507213601 71 324 0.0 0.9 0.00 0.16 0.16 87 1048.0
20260507213059 69 301 0.0 0.0 0.00 0.16 0.16 89 1048.0
20260507212554 70 28 0.0 0.9 0.00 0.16 0.16 88 1047.8
20260507212052 69 181 0.0 0.0 0.00 0.16 0.16 89 1047.8
20260507211548 66 304 0.0 0.9 0.00 0.16 0.16 93 1047.7
20260507211044 69 313 0.0 0.9 0.00 0.16 0.16 91 1047.8
20260507210542 69 28 0.9 1.7 0.00 0.16 0.16 90 1047.9
20260507210038 70 73 0.0 2.6 0.00 0.16 0.16 90 1047.6
20260507205535 70 349 0.0 1.7 0.00 0.16 0.16 89 1047.5
20260507205031 69 10 0.0 0.0 0.00 0.16 0.16 92 1047.7
20260507204528 68 0 0.0 0.0 0.00 0.16 0.16 94 1047.3
20260507204026 69 62 0.0 0.9 0.00 0.16 0.16 94 1047.4
20260507203523 70 318 0.0 0.0 0.00 0.16 0.16 92 1047.4
20260507203020 70 265 0.9 2.6 0.00 0.16 0.16 93 1047.4
20260507202516 70 59 0.9 0.9 0.00 0.16 0.16 94 1047.3
20260507202012 71 30 0.0 0.9 0.00 0.16 0.16 93 1047.0
20260507201508 74 121 0.0 2.6 0.00 0.16 0.16 90 1046.8
20260507201004 77 214 0.0 0.0 0.00 0.16 0.16 86 1046.8
20260507200500 75 206 0.0 0.0 0.00 0.16 0.16 81 1046.6
20260507195956 77 214 0.0 0.0 0.00 0.16 0.16 84 1046.7
20260507195454 78 205 0.0 0.0 0.00 0.16 0.16 84 1046.4
20260507194951 80 212 0.0 0.0 0.00 0.16 0.16 79 1046.6
20260507194447 79 207 0.0 0.0 0.00 0.16 0.16 83 1046.7
20260507193943 75 209 0.0 0.0 0.00 0.16 0.16 83 1046.8
20260507193441 75 207 0.0 0.0 0.00 0.16 0.16 84 1046.7
20260507192937 78 31 0.0 0.0 0.00 0.16 0.16 82 1046.7
20260507192433 79 23 0.0 0.9 0.00 0.16 0.16 79 1046.6
20260507191931 81 6 0.0 0.9 0.00 0.16 0.16 77 1046.5
20260507191426 82 30 0.0 0.0 0.00 0.16 0.16 73 1046.5
20260507190923 84 152 0.0 0.0 0.00 0.16 0.16 75 1046.4
20260507190421 81 151 0.0 0.0 0.00 0.16 0.16 76 1046.6
20260507185920 77 13 0.0 0.9 0.00 0.16 0.16 78 1046.6
20260507185417 79 47 0.0 0.9 0.00 0.16 0.16 79 1046.6
20260507184913 79 354 0.0 0.0 0.00 0.16 0.16 80 1046.9
20260507184411 79 359 0.0 0.0 0.00 0.16 0.16 81 1046.7
20260507183909 77 75 0.0 0.9 0.00 0.16 0.16 80 1046.7
20260507183405 78 356 0.0 0.0 0.00 0.16 0.16 78 1046.8
20260507182903 79 336 0.0 0.0 0.00 0.16 0.16 79 1047.0
20260507182358 80 307 0.0 2.6 0.00 0.16 0.16 80 1047.0
20260507181855 77 303 0.0 0.0 0.00 0.16 0.16 79 1047.0
20260507181351 79 28 0.0 0.0 0.00 0.16 0.16 78 1046.9
20260507180848 78 26 0.0 0.0 0.00 0.16 0.16 83 1047.0
20260507180344 78 29 0.0 0.0 0.00 0.16 0.16 80 1047.3
20260507175840 78 27 0.0 0.0 0.00 0.16 0.16 79 1047.2
20260507175337 78 359 0.0 0.0 0.00 0.16 0.16 80 1047.3
20260507174835 76 39 0.0 0.0 0.00 0.16 0.16 79 1047.4
20260507174332 79 28 0.0 0.0 0.00 0.16 0.16 81 1047.4
20260507173829 82 35 0.0 0.9 0.00 0.16 0.16 73 1047.3
20260507173326 80 15 0.0 0.0 0.00 0.16 0.16 72 1047.5
20260507172823 81 14 0.0 0.0 0.00 0.16 0.16 73 1047.2
20260507172320 78 25 0.0 0.0 0.00 0.16 0.16 76 1047.3
20260507171815 77 23 0.0 0.0 0.00 0.16 0.16 81 1047.5
20260507171313 75 337 0.0 0.9 0.00 0.16 0.16 83 1047.7
20260507170809 77 342 0.0 0.0 0.00 0.16 0.16 82 1047.6
20260507170306 78 330 0.0 0.0 0.00 0.16 0.16 80 1047.7
20260507165802 78 1 0.0 0.0 0.00 0.16 0.16 87 1047.9